Location: Hastringsfeld
(50.9620°N, 10.4787°E)
Time: 05:29:47
(UTC+00:00)

FENGYUN 3A - Pass Details

Date: 26 September 2023
Orbit: 823 x 834 km, 98.6° (Epoch: 29 November)

Event Time Altitude Azimuth Distance (km) Brightness Sun altitude
Rises 01:41:44 0° 18° (NNE) 3,373 7.7 -30.7°
Reaches altitude 10° 01:44:10 10° 23° (NNE) 2,435 6.9 -30.4°
Maximum altitude 01:49:26 54° 100° (E) 1,001 4.1 -29.8°
Enters shadow 01:49:40 53° 110° (ESE) 1,005 4.1 -29.8°
